Kahului, HI

8:53 PM HST on February 19, 2018 (GMT -1000)
Kahului

Weather History for PHOG - January, 2014

Change the Weather History Date:

Monday, January 20, 2014

  Actual Average Record
Temperature  
Mean Temperature 72 °F 72 °F  
Max Temperature 81 °F 81 °F 88 °F (2012)
Min Temperature 63 °F 63 °F 48 °F (1969)
Degree Days  
Heating Degree Days 0 0  
Month to date heating degree days 0 0  
Since 1 July heating degree days 0 0  
Cooling Degree Days 7 7  
Month to date cooling degree days 166 140  
Year to date cooling degree days 166 140  
Growing Degree Days 22 (Base 50)    
Moisture  
Dew Point 65 °F    
Average Humidity 79    
Maximum Humidity 100    
Minimum Humidity 58    
Precipitation  
Precipitation 0.00 in 0.09 in 4.68 in (1952)
Month to date precipitation 1.24 1.90  
Year to date precipitation 1.24 1.90  
Snow  
Snow 0.00 in - - ()
Month to date snowfall 0.0  
Since 1 July snowfall 0.0  
Snow Depth 0.00 in    
Sea Level Pressure  
Sea Level Pressure 29.93 in    
Wind  
Wind Speed 5 mph (East)    
Max Wind Speed 9 mph    
Max Gust Speed -    
Visibility 10 miles    
Events      
T = Trace of Precipitation, MM = Missing Value Source: NWS Daily Summary

Daily Weather History Graph

Daily Weather History Graph

Search for Another Location

Airport or City:

Trip Planner

Search our weather history database for the weather conditions in past years. The results will help you decide how hot, cold, wet, or windy it might be!

Date:

Astronomy

Jan. 20, 2014 Rise Set
Actual Time 7:04 AM HST 6:08 PM HST
Civil Twilight 6:41 AM HST 6:32 PM HST
Nautical Twilight 6:14 AM HST 6:59 PM HST
Astronomical Twilight 5:47 AM HST 7:26 PM HST
Moon 10:12 PM HST 9:47 AM HST
Length of Visible Light 11h 51m
Length of Day
11h 03m
Waning Gibbous, 81% of the Moon is Illuminated
Jan 20
Waning Gibbous
Jan 23
Last Quarter
Jan 30
New
Feb 6
First Quarter
Feb 14
Full

Hourly Weather History & Observations

Time (HST) Temp. Heat Index Dew Point Humidity Pressure Visibility Wind Dir Wind Speed Gust Speed Precip Events Conditions
12:01 AM 66.2 °F - 64.4 °F 94% 29.95 in 10.0 mi Calm Calm - N/A   Mostly Cloudy
12:54 AM - - - N/A% 29.95 in 10.0 mi Calm Calm - 0.00 in   Overcast
1:54 AM - - - N/A% 29.92 in 10.0 mi Calm Calm - N/A   Scattered Clouds
2:54 AM - - - N/A% 29.91 in 10.0 mi SSE 5.8 mph - N/A   Clear
3:54 AM - - - N/A% 29.91 in 10.0 mi SSE 4.6 mph - N/A   Partly Cloudy
4:54 AM - - - N/A% 29.93 in 10.0 mi Calm Calm - N/A   Clear
5:54 AM 64.4 °F - 62.6 °F 94% 29.93 in 10.0 mi SE 4.6 mph - N/A   Scattered Clouds
6:54 AM 62.6 °F - 62.6 °F 100% 29.95 in 10.0 mi SE 8.1 mph - N/A   Partly Cloudy
7:54 AM 64.4 °F - 64.4 °F 100% 29.96 in 10.0 mi South 3.5 mph - N/A   Partly Cloudy
8:54 AM 73.0 °F - 66.9 °F 81% 29.98 in 10.0 mi Calm Calm - N/A   Partly Cloudy
9:54 AM 77.0 °F - 66.9 °F 71% 29.99 in 10.0 mi North 5.8 mph - N/A   Scattered Clouds
10:54 AM 77.0 °F - 68.0 °F 74% 29.98 in 10.0 mi NE 8.1 mph - N/A   Partly Cloudy
11:54 AM 80.1 °F 82.7 °F 68.0 °F 67% 29.96 in 10.0 mi NNE 9.2 mph - N/A   Scattered Clouds
12:54 PM 81.0 °F 83.3 °F 66.9 °F 62% 29.92 in 10.0 mi NE 8.1 mph - N/A   Scattered Clouds
1:54 PM 81.0 °F 83.0 °F 66.0 °F 60% 29.89 in 10.0 mi NE 9.2 mph - N/A   Scattered Clouds
2:54 PM 77.0 °F - 68.0 °F 74% 29.88 in 10.0 mi NNE 9.2 mph - N/A   Scattered Clouds
3:54 PM 81.0 °F 83.0 °F 66.0 °F 60% 29.88 in 10.0 mi NE 8.1 mph - N/A   Scattered Clouds
4:54 PM 80.1 °F 81.9 °F 64.9 °F 60% 29.89 in 10.0 mi NNE 8.1 mph - N/A   Scattered Clouds
5:54 PM 77.0 °F - 66.0 °F 69% 29.91 in 10.0 mi North 3.5 mph - N/A   Scattered Clouds
6:54 PM 73.9 °F - 66.0 °F 76% 29.92 in 10.0 mi Calm Calm - N/A   Clear
7:54 PM 70.0 °F - 64.9 °F 84% 29.94 in 10.0 mi SSE 3.5 mph - N/A   Clear
8:54 PM 68.0 °F - 64.0 °F 87% 29.94 in 10.0 mi SE 4.6 mph - N/A   Clear
9:54 PM 66.0 °F - 63.0 °F 90% 29.95 in 10.0 mi SE 5.8 mph - N/A   Clear
10:54 PM 64.9 °F - 62.1 °F 90% 29.94 in 10.0 mi SSE 5.8 mph - N/A   Clear